{"data":{"norad_id":57493,"epoch":"2026-09-19T16:22:02.292672Z","epoch_age_seconds":85722,"freshness":"FRESH","line1":"1 57493U 23112A   26262.68197098  .00000044  00000+0  00000+0 0  9999","line2":"2 57493   0.0145 131.0684 0002036  48.2211 297.8149  1.00272043 11496","mean_motion":1.00272043,"eccentricity":0.0002036,"inclination_deg":0.0145,"raan_deg":131.0684,"arg_perigee_deg":48.2211,"mean_anomaly_deg":297.8149,"bstar":0,"rev_number":1149,"period_min":1436.0932089516,"perigee_km":35777.937909878,"apogee_km":35795.107359282,"semimajor_km":42164.65963458,"source":"CELESTRAK","updated_at":"2026-09-20T09:00:35.526257Z"}}